Precipitable_Water
1.58 1.61 1.61 1.61 1.68 1.85 1.95 1.97 2.08 2.06 1.92 1.82 1.78 1.79 1.71 1.67 1.65 1.56 1.55 1.57 1.51 1.47 1.50 1.51 1.43 1.43 1.37 1.40 1.41 1.36 1.32 1.31 1.19 1.25 1.38 1.42 1.41 1.41 1.34 1.38 1.33 1.28 1.29
1.61 1.63 1.62 1.71 1.65 1.70 1.80 1.97 2.06 1.99 2.05 1.98 1.86 1.77 1.77 1.79 1.79 1.72 1.60 1.53 1.44 1.39 1.41 1.40 1.38 1.39 1.37 1.33 1.29 1.26 1.26 1.30 1.20 1.07 1.17 1.26 1.37 1.40 1.38 1.38 1.41 1.34 1.32
1.70 1.68 1.72 1.63 1.56 1.55 1.69 1.89 1.97 1.99 2.03 2.05 1.98 1.95 1.87 1.92 1.91 1.83 1.77 1.63 1.58 1.54 1.50 1.43 1.40 1.37 1.35 1.30 1.34 1.32 1.32 1.29 1.24 1.17 1.15 1.29 1.33 1.41 1.40 1.39 1.36 1.37 1.37
1.86 1.78 1.81 1.80 1.70 1.65 1.62 1.68 1.90 1.95 1.84 1.95 1.93 1.82 1.87 2.01 2.00 1.96 1.81 1.69 1.58 1.64 1.65 1.58 1.56 1.52 1.52 1.50 1.48 1.53 1.50 1.44 1.38 1.38 1.33 1.35 1.36 1.45 1.45 1.31 1.18 1.28 1.29
1.91 1.88 1.82 1.88 1.84 1.85 1.78 1.62 1.62 1.72 1.76 1.78 1.84 1.76 1.77 1.88 2.07 2.00 1.96 1.84 1.63 1.65 1.70 1.67 1.66 1.66 1.63 1.63 1.59 1.57 1.54 1.41 1.40 1.36 1.32 1.33 1.36 1.38 1.18 1.25 1.18 1.20 1.22
1.96 1.93 1.97 2.02 1.99 1.95 1.95 1.78 1.60 1.55 1.67 1.74 1.78 1.84 1.79 1.82 1.83 1.81 1.81 1.76 1.70 1.57 1.56 1.67 1.75 1.73 1.70 1.66 1.61 1.61 1.59 1.46 1.33 1.29 1.25 1.23 1.28 1.32 1.31 1.28 1.26 1.20 1.06
1.93 1.91 1.92 1.93 1.91 1.99 2.01 1.89 1.73 1.59 1.67 1.69 1.75 1.81 1.84 1.90 1.82 1.78 1.74 1.73 1.74 1.70 1.68 1.67 1.66 1.65 1.70 1.63 1.58 1.53 1.48 1.44 1.45 1.46 1.38 1.39 1.37 1.47 1.48 1.36 1.34 1.30 1.22
1.91 1.86 1.85 1.80 1.83 2.05 2.06 2.01 1.95 1.84 1.74 1.68 1.68 1.77 1.73 1.68 1.76 1.78 1.80 1.81 1.81 1.79 1.77 1.75 1.80 1.79 1.82 1.80 1.74 1.65 1.62 1.63 1.65 1.64 1.57 1.54 1.52 1.58 1.58 1.58 1.58 1.56 1.53
1.79 1.78 1.75 1.71 1.78 1.87 1.83 1.84 1.88 1.89 1.83 1.80 1.69 1.67 1.65 1.65 1.74 1.83 1.86 1.90 1.94 2.00 1.90 1.85 1.85 1.78 1.78 1.78 1.71 1.67 1.70 1.74 1.87 1.83 1.77 1.73 1.68 1.64 1.63 1.58 1.42 1.40 1.33
1.71 1.70 1.64 1.61 1.62 1.65 1.70 1.73 1.85 1.96 1.86 1.78 1.65 1.64 1.64 1.62 1.70 1.79 1.80 1.81 1.73 1.71 1.83 1.84 1.81 1.78 1.75 1.74 1.73 1.72 1.62 1.72 1.74 1.74 1.79 1.84 1.88 1.89 1.92 1.88 1.76 1.57 1.54
1.67 1.68 1.60 1.54 1.50 1.49 1.55 1.64 1.73 1.72 1.71 1.67 1.65 1.61 1.53 1.52 1.50 1.65 1.69 1.64 1.66 1.60 1.61 1.64 1.66 1.57 1.60 1.66 1.68 1.65 1.60 1.58 1.58 1.65 1.73 1.85 1.94 2.00 2.06 2.11 2.08 1.94 1.77
1.58 1.63 1.57 1.53 1.50 1.47 1.38 1.35 1.39 1.39 1.39 1.35 1.24 1.16 1.17 1.20 1.31 1.49 1.56 1.57 1.62 1.54 1.47 1.47 1.49 1.47 1.48 1.49 1.56 1.62 1.63 1.62 1.62 1.52 1.48 1.57 1.73 1.85 2.02 2.04 2.06 2.04 2.02
1.19 1.33 1.42 1.39 1.26 1.24 1.14 1.06 1.00 0.99 0.95 0.94 0.95 0.94 0.97 0.99 0.99 0.95 1.02 1.15 1.24 1.41 1.35 1.26 1.19 1.19 1.21 1.24 1.29 1.36 1.46 1.61 1.61 1.55 1.58 1.59 1.64 1.72 1.84 1.85 1.86 1.95 2.04
0.84 0.84 0.86 0.85 0.82 0.82 0.82 0.85 0.85 0.86 0.84 0.81 0.78 0.77 0.79 0.79 0.79 0.83 0.83 0.81 0.81 0.85 0.85 0.80 0.81 0.79 0.81 0.83 0.91 0.98 1.07 1.13 1.13 1.11 1.26 1.36 1.39 1.36 1.30 1.40 1.39 1.46 1.47
0.70 0.69 0.72 0.71 0.73 0.73 0.73 0.74 0.71 0.69 0.71 0.71 0.73 0.72 0.68 0.65 0.64 0.61 0.58 0.57 0.59 0.56 0.53 0.58 0.58 0.59 0.59 0.63 0.68 0.73 0.80 0.96 0.98 0.94 0.88 0.89 0.91 0.91 0.92 0.96 0.94 0.93 0.92
0.60 0.59 0.59 0.57 0.58 0.60 0.58 0.58 0.63 0.61 0.61 0.60 0.60 0.60 0.56 0.50 0.48 0.44 0.39 0.39 0.38 0.40 0.45 0.44 0.47 0.50 0.49 0.52 0.56 0.62 0.68 0.65 0.65 0.63 0.63 0.66 0.66 0.69 0.72 0.77 0.80 0.79 0.75
0.63 0.59 0.53 0.55 0.55 0.54 0.55 0.55 0.51 0.50 0.51 0.50 0.47 0.44 0.42 0.40 0.37 0.35 0.34 0.33 0.32 0.36 0.35 0.36 0.38 0.40 0.43 0.46 0.49 0.51 0.51 0.57 0.60 0.56 0.54 0.55 0.57 0.56 0.55 0.58 0.61 0.64 0.62
0.63 0.58 0.57 0.54 0.53 0.54 0.54 0.52 0.53 0.52 0.49 0.47 0.43 0.41 0.40 0.39 0.37 0.35 0.36 0.39 0.36 0.35 0.33 0.33 0.33 0.34 0.36 0.37 0.38 0.41 0.44 0.45 0.47 0.51 0.53 0.52 0.54 0.54 0.53 0.52 0.52 0.54 0.57
0.57 0.54 0.55 0.55 0.52 0.50 0.49 0.47 0.44 0.43 0.41 0.40 0.41 0.40 0.38 0.37 0.37 0.36 0.36 0.35 0.32 0.31 0.32 0.32 0.34 0.35 0.36 0.38 0.39 0.39 0.39 0.39 0.39 0.42 0.46 0.46 0.50 0.52 0.51 0.53 0.54 0.55 0.52
0.53 0.49 0.47 0.46 0.43 0.43 0.42 0.42 0.40 0.38 0.38 0.36 0.35 0.33 0.34 0.37 0.35 0.34 0.36 0.35 0.32 0.32 0.32 0.32 0.33 0.35 0.35 0.36 0.37 0.39 0.39 0.40 0.40 0.41 0.42 0.46 0.47 0.47 0.45 0.46 0.46 0.45 0.46
0.45 0.41 0.42 0.43 0.42 0.41 0.39 0.37 0.36 0.35 0.34 0.33 0.33 0.30 0.31 0.34 0.33 0.35 0.34 0.33 0.33 0.33 0.34 0.34 0.35 0.36 0.37 0.38 0.39 0.38 0.39 0.40 0.40 0.41 0.42 0.45 0.47 0.44 0.45 0.45 0.43 0.43 0.43
0.44 0.40 0.38 0.38 0.38 0.37 0.37 0.37 0.36 0.35 0.35 0.34 0.35 0.35 0.35 0.36 0.35 0.35 0.35 0.36 0.36 0.37 0.37 0.37 0.36 0.37 0.37 0.37 0.37 0.37 0.36 0.36 0.38 0.39 0.41 0.41 0.42 0.44 0.44 0.43 0.43 0.42 0.42
0.43 0.41 0.39 0.39 0.40 0.38 0.36 0.37 0.36 0.36 0.35 0.36 0.36 0.36 0.37 0.37 0.37 0.37 0.38 0.39 0.40 0.40 0.40 0.40 0.38 0.38 0.40 0.40 0.41 0.40 0.38 0.38 0.39 0.41 0.40 0.39 0.40 0.40 0.42 0.41 0.41 0.41 0.41
0.53 0.46 0.43 0.42 0.41 0.39 0.39 0.38 0.38 0.36 0.37 0.37 0.38 0.38 0.39 0.39 0.39 0.39 0.40 0.40 0.40 0.41 0.41 0.41 0.41 0.41 0.41 0.42 0.42 0.43 0.43 0.43 0.44 0.43 0.44 0.43 0.43 0.44 0.44 0.44 0.45 0.45 0.45
0.62 0.57 0.52 0.48 0.46 0.42 0.42 0.41 0.41 0.40 0.40 0.40 0.40 0.41 0.42 0.43 0.43 0.44 0.44 0.43 0.42 0.41 0.41 0.42 0.42 0.42 0.42 0.42 0.43 0.43 0.44 0.44 0.44 0.47 0.47 0.47 0.46 0.47 0.48 0.49 0.50 0.51 0.51
0.71 0.62 0.59 0.57 0.55 0.52 0.49 0.48 0.46 0.46 0.45 0.45 0.45 0.47 0.47 0.47 0.46 0.47 0.46 0.45 0.43 0.42 0.42 0.42 0.42 0.42 0.43 0.43 0.43 0.44 0.43 0.44 0.46 0.50 0.52 0.52 0.51 0.52 0.54 0.54 0.56 0.55 0.56
Wind_Speed
18 17 15 15 14 13 12 11 10 10 10 9 10 9 9 9 9 9 9 10 11 12 12 12 12 12 12 12 12 12 13 14 15 15 15 16 17 17 17 17 17 16 15
19 19 18 16 16 15 15 13 12 10 11 10 10 10 10 10 10 10 10 10 12 12 12 13 13 13 13 13 13 13 14 15 16 16 16 16 16 17 16 16 16 15 15
21 20 20 19 18 17 17 16 15 14 13 12 11 12 12 12 11 11 11 11 12 12 12 13 13 13 13 13 13 13 13 14 14 15 16 16 16 16 16 15 15 15 14
22 21 20 19 19 19 19 19 18 17 16 16 15 14 13 13 13 12 12 12 13 13 13 13 13 14 14 13 14 14 14 14 14 14 15 15 15 15 15 15 15 15 14
23 22 20 20 19 20 20 20 20 19 18 18 17 16 16 15 15 15 13 14 14 14 15 15 15 15 15 15 15 15 15 16 15 16 16 16 16 15 16 16 16 15 14
25 26 23 23 21 21 21 21 21 20 20 19 19 18 18 17 16 17 16 16 16 17 17 17 17 18 18 18 18 18 18 18 18 18 18 17 17 17 16 16 16 16 16
20 19 20 21 21 23 22 22 22 22 21 20 19 19 19 19 19 20 20 19 19 18 18 18 18 18 18 19 19 19 20 20 21 21 21 20 20 19 19 19 19 19 20
17 17 17 17 18 17 19 20 22 22 21 21 20 19 19 19 20 21 22 22 22 21 21 20 20 20 19 20 20 21 21 21 21 21 22 22 22 22 21 22 23 23 23
16 16 14 13 15 17 17 16 18 20 21 19 17 16 17 19 21 22 21 21 21 20 20 21 21 21 22 22 23 24 23 24 24 25 26 26 27 27 27 26 26 25 25
17 16 14 12 12 12 14 13 12 17 20 19 18 17 17 15 18 23 22 21 21 21 21 21 21 22 23 23 23 24 25 24 25 27 28 29 29 29 28 28 28 28 28
19 18 17 15 14 14 13 12 12 12 13 14 16 17 16 15 16 19 22 22 22 22 22 22 22 23 24 25 25 26 26 27 27 28 28 27 28 28 28 28 30 30 30
18 19 18 17 16 15 15 14 13 13 13 14 14 13 13 13 12 11 15 19 22 22 24 26 27 28 28 29 28 29 31 31 32 31 31 31 31 30 30 30 29 31 34
18 19 19 18 17 16 16 16 16 16 15 16 16 16 16 16 15 15 16 17 19 22 23 24 25 25 25 28 28 28 28 27 28 29 30 29 30 32 32 31 30 29 28
19 19 21 21 20 19 19 18 18 18 18 19 19 19 19 19 19 20 21 22 23 24 24 25 26 26 26 26 27 26 27 28 28 28 27 29 29 29 29 29 30 30 29
21 21 22 23 23 22 21 21 21 22 22 23 22 23 23 23 23 25 26 26 27 27 28 28 28 28 28 28 29 29 30 29 30 30 31 31 31 31 31 32 32 33 33
23 23 24 24 24 24 24 23 23 23 23 24 24 24 25 25 26 26 25 26 26 26 25 26 26 27 27 28 28 29 30 30 31 32 32 33 33 34 34 35 36 36 36
25 25 26 26 27 26 27 27 26 26 25 25 26 26 26 27 26 26 26 26 27 27 26 27 27 28 28 29 29 30 31 32 33 33 34 35 36 36 37 37 38 38 38
26 27 27 27 28 28 28 28 28 28 28 28 27 27 27 27 27 28 28 28 27 27 27 27 28 29 30 31 32 33 34 35 35 36 37 38 39 40 40 40 41 41 42
28 28 28 28 28 28 28 28 27 27 28 28 28 28 28 28 28 28 28 27 28 28 28 29 31 32 33 34 35 36 37 39 40 41 41 42 42 43 44 44 45 45 46
29 28 27 27 27 27 27 27 27 27 28 27 27 27 28 27 27 27 27 28 29 29 30 31 32 34 35 36 37 38 40 41 42 43 44 45 46 47 48 49 49 50 50
28 28 28 27 27 27 27 28 28 28 28 27 27 27 27 28 28 28 29 30 31 32 33 34 35 36 37 38 40 41 42 43 45 46 47 48 49 50 51 52 53 54 55
27 27 28 28 27 27 27 27 27 27 27 28 28 28 28 28 29 29 30 31 32 33 34 35 36 38 39 40 41 42 43 45 46 48 49 51 53 54 56 57 58 58 58
29 29 29 28 28 27 27 27 27 27 27 27 28 28 28 28 29 30 31 32 33 34 35 36 38 39 40 41 43 44 45 46 48 50 52 54 55 56 57 59 59 60 61
31 31 31 30 29 29 28 27 27 27 27 27 27 28 28 29 30 31 32 33 34 35 36 37 38 40 41 43 44 45 47 48 50 52 54 55 57 58 59 60 61 62 62
34 33 32 32 31 31 30 29 28 28 28 28 28 28 28 29 30 31 32 33 34 35 37 38 39 40 42 44 45 47 48 51 53 55 57 58 59 59 60 60 60 61 61
35 34 33 32 31 31 30 30 29 29 29 28 28 28 29 29 30 31 32 33 34 35 37 38 39 41 43 45 46 49 52 53 54 55 56 55 55 55 55 56 56 55 55
Wind_Direction
216 214 216 216 216 216 217 213 211 205 204 205 205 205 207 212 216 217 219 219 224 228 231 235 240 244 249 254 258 262 264 269 273 279 286 294 300 306 311 317 320 323 324
219 219 221 222 221 222 222 220 218 215 216 215 212 215 218 220 222 225 227 229 230 233 237 241 244 248 251 256 262 265 269 272 275 281 285 291 296 304 308 313 316 319 321
222 223 224 225 226 226 226 225 224 223 220 220 221 225 227 229 230 232 233 235 237 238 241 243 247 248 253 257 262 267 273 274 275 278 284 289 294 299 305 309 313 316 317
220 222 224 227 230 231 230 230 230 231 231 231 233 234 235 236 235 235 238 240 242 243 245 247 250 252 256 260 264 268 273 276 278 279 284 289 294 297 300 305 310 312 314
222 225 225 228 233 234 233 232 232 233 234 235 236 237 237 238 239 240 245 245 245 247 249 252 253 255 258 262 266 270 273 275 277 279 282 287 290 297 300 301 304 308 310
225 228 230 234 237 237 234 233 232 232 235 236 238 239 240 241 243 244 249 249 249 251 253 255 257 259 262 263 266 268 271 274 275 278 281 284 288 290 295 298 300 302 304
222 225 225 235 240 240 232 232 233 234 236 237 240 241 243 245 250 250 249 251 251 253 256 258 260 262 263 266 266 268 270 271 271 274 276 279 283 285 289 291 292 294 297
221 220 227 237 235 226 225 229 234 234 235 236 241 243 245 251 253 252 251 250 252 254 257 259 262 264 266 267 269 270 271 272 272 273 274 277 279 282 283 285 288 290 292
221 218 222 226 219 217 222 233 235 232 231 233 238 244 247 257 256 253 252 251 251 254 258 260 262 264 269 272 272 271 272 273 274 274 275 276 278 279 280 282 283 286 288
219 216 215 213 208 208 217 231 237 231 228 231 235 241 251 267 263 251 250 250 253 256 259 262 265 267 269 271 272 273 275 276 277 277 277 278 278 278 279 279 281 282 285
222 217 215 217 218 222 226 227 225 223 223 227 235 245 246 262 276 256 247 248 253 258 260 263 266 271 272 270 272 273 275 277 279 279 280 279 278 278 279 279 280 280 282
219 216 217 222 227 227 226 226 227 228 228 229 232 235 246 260 274 270 252 255 256 260 265 266 269 271 272 273 274 272 275 278 277 279 279 278 278 278 281 284 283 287 277
220 220 219 223 225 226 228 231 233 236 237 238 243 247 254 260 265 268 267 268 267 265 266 270 273 276 275 271 273 274 275 276 279 284 280 276 279 278 280 283 285 287 285
226 227 229 230 234 235 237 240 242 244 245 247 249 252 258 265 271 273 271 271 272 271 272 272 275 275 275 275 275 275 275 277 280 282 284 280 280 281 280 280 283 285 285
233 235 234 237 239 240 242 246 248 251 252 252 256 258 262 266 271 275 275 275 276 276 276 274 276 276 277 276 277 277 277 278 279 281 282 282 281 281 281 281 282 283 283
238 239 239 241 242 243 245 247 250 253 254 256 258 261 262 268 271 275 276 276 276 276 274 276 276 277 278 278 279 279 280 280 280 282 282 281 281 281 281 282 282 281 281
243 243 243 244 246 248 249 249 251 253 256 258 260 261 263 267 269 272 275 276 277 275 275 276 276 276 277 278 278 279 280 280 282 280 281 281 281 281 281 281 281 281 281
245 246 246 247 247 249 251 252 254 254 254 256 260 263 265 267 269 270 274 275 275 275 275 276 277 277 278 279 279 279 280 280 280 281 281 282 281 281 281 281 281 280 280
247 248 248 249 249 250 251 251 251 252 255 258 259 262 265 266 269 270 272 273 276 276 277 278 279 279 279 279 279 280 280 280 281 281 280 280 280 280 280 280 280 280 280
247 248 247 247 248 250 249 250 252 254 256 258 260 264 266 267 268 270 272 275 277 278 280 281 281 282 282 282 281 281 282 282 282 282 281 281 281 281 280 280 280 280 279
246 245 247 247 248 249 250 252 253 255 257 258 260 264 265 267 269 271 274 277 279 280 281 282 283 283 283 283 284 283 283 283 283 283 283 283 282 281 281 280 280 279 279
244 245 246 248 249 250 251 252 253 255 257 258 260 262 266 267 270 272 275 278 280 281 282 283 284 285 285 285 285 285 285 285 284 284 284 284 283 282 282 282 281 280 279
247 247 248 249 249 250 251 253 255 256 258 259 262 264 266 269 272 274 277 280 282 283 283 284 285 286 286 286 286 286 286 286 286 286 286 285 284 284 283 282 281 281 280
248 248 248 248 249 250 251 252 254 257 258 260 262 265 268 270 273 275 278 281 283 284 285 286 287 288 288 288 288 288 288 288 288 288 287 286 286 285 284 283 282 281 280
248 247 247 247 247 249 250 252 253 256 258 260 263 266 269 272 274 277 280 282 285 286 287 288 289 289 290 290 291 290 290 290 290 289 289 288 287 285 284 283 282 282 281
243 244 245 245 246 247 249 250 253 256 258 260 263 266 270 274 277 280 282 285 287 288 290 290 291 292 293 293 293 293 293 292 291 290 290 290 290 288 286 285 283 282 281